Year,Month,Day,Hour,Minute,Value (Times are PST for temperature in C)
2011,07,10,00,03,13.70
2011,07,10,00,04,13.70
2011,07,10,00,05,13.70
2011,07,10,00,06,13.60
2011,07,10,00,07,13.60
2011,07,10,00,08,13.60
2011,07,10,00,09,13.60
2011,07,10,00,10,13.60
2011,07,10,00,11,13.60
2011,07,10,00,13,13.60
2011,07,10,00,14,13.50
2011,07,10,00,15,13.50
2011,07,10,00,16,13.50
2011,07,10,00,17,13.50
2011,07,10,00,18,13.40
2011,07,10,00,19,13.40
2011,07,10,00,20,13.40
2011,07,10,00,21,13.40
2011,07,10,00,22,13.40
2011,07,10,00,23,13.40
2011,07,10,00,24,13.40
2011,07,10,00,25,13.40
2011,07,10,00,26,13.40
2011,07,10,00,27,13.40
2011,07,10,00,28,13.40
2011,07,10,00,29,13.30
2011,07,10,00,34,13.30
2011,07,10,00,35,13.30
2011,07,10,00,36,13.30
2011,07,10,00,38,13.30
2011,07,10,00,39,13.30
2011,07,10,00,40,13.30
2011,07,10,00,41,13.20
2011,07,10,00,42,13.20
2011,07,10,00,43,13.20
2011,07,10,00,44,13.20
2011,07,10,00,45,13.20
2011,07,10,00,46,13.20
2011,07,10,00,47,13.10
2011,07,10,00,48,13.10
2011,07,10,00,49,13.10
2011,07,10,00,50,13.10
2011,07,10,00,51,13.10
2011,07,10,00,52,13.00
2011,07,10,00,53,13.00
2011,07,10,00,54,13.00
2011,07,10,00,55,13.00
2011,07,10,00,56,13.00
2011,07,10,00,57,13.00
2011,07,10,00,58,12.90
2011,07,10,00,59,12.90
2011,07,10,01,00,12.90
2011,07,10,01,01,12.90
2011,07,10,01,02,12.90
2011,07,10,01,03,12.90
2011,07,10,01,04,12.90
2011,07,10,01,05,12.90
2011,07,10,01,06,12.90
2011,07,10,01,07,12.80
2011,07,10,01,08,12.80
2011,07,10,01,09,12.80
2011,07,10,01,10,12.80
2011,07,10,01,11,12.80
2011,07,10,01,12,12.80
2011,07,10,01,14,12.80
2011,07,10,01,15,12.80
2011,07,10,01,16,12.70
2011,07,10,01,17,12.70
2011,07,10,01,18,12.70
2011,07,10,01,19,12.70
2011,07,10,01,20,12.70
2011,07,10,01,21,12.60
2011,07,10,01,22,12.60
2011,07,10,01,23,12.60
2011,07,10,01,24,12.60
2011,07,10,01,25,12.60
2011,07,10,01,26,12.60
2011,07,10,01,27,12.60
2011,07,10,01,28,12.50
2011,07,10,01,29,12.50
2011,07,10,01,31,12.50
2011,07,10,01,32,12.40
2011,07,10,01,33,12.40
2011,07,10,01,35,12.40
2011,07,10,01,36,12.40
2011,07,10,01,37,12.40
2011,07,10,01,38,12.40
2011,07,10,01,39,12.40
2011,07,10,01,40,12.40
2011,07,10,01,41,12.40
2011,07,10,01,42,12.40
2011,07,10,01,43,12.30
2011,07,10,01,45,12.30
2011,07,10,01,46,12.30
2011,07,10,01,47,12.30
2011,07,10,01,48,12.30
2011,07,10,01,49,12.30
2011,07,10,01,50,12.30
2011,07,10,01,51,12.30
2011,07,10,01,52,12.30
2011,07,10,01,54,12.30
2011,07,10,01,55,12.30
2011,07,10,01,56,12.30
2011,07,10,01,57,12.30
2011,07,10,01,59,12.30
2011,07,10,02,00,12.20
2011,07,10,02,01,12.20
2011,07,10,02,02,12.20
2011,07,10,02,03,12.20
2011,07,10,02,05,12.20
2011,07,10,02,06,12.20
2011,07,10,02,07,12.10
2011,07,10,02,08,12.10
2011,07,10,02,09,12.10
2011,07,10,02,11,12.10
2011,07,10,02,12,12.10
2011,07,10,02,13,12.10
2011,07,10,02,14,12.00
2011,07,10,02,16,12.00
2011,07,10,02,17,12.00
2011,07,10,02,18,12.00
2011,07,10,02,19,12.00
2011,07,10,02,21,12.00
2011,07,10,02,22,11.90
2011,07,10,02,23,11.90
2011,07,10,02,24,11.90
2011,07,10,02,25,11.90
2011,07,10,02,26,11.90
2011,07,10,02,27,11.90
2011,07,10,02,28,11.90
2011,07,10,02,30,11.90
2011,07,10,02,31,11.90
2011,07,10,02,32,11.90
2011,07,10,02,33,11.90
2011,07,10,02,34,11.90
2011,07,10,02,36,11.90
2011,07,10,02,37,11.90
2011,07,10,02,38,11.90
2011,07,10,02,39,11.90
2011,07,10,02,40,11.90
2011,07,10,02,42,11.90
2011,07,10,02,43,11.80
2011,07,10,02,44,11.80
2011,07,10,02,45,11.90
2011,07,10,02,46,11.80
2011,07,10,02,47,11.80
2011,07,10,02,48,11.80
2011,07,10,02,49,11.80
2011,07,10,02,50,11.80
2011,07,10,02,51,11.80
2011,07,10,02,52,11.80
2011,07,10,02,53,11.80
2011,07,10,02,54,11.80
2011,07,10,02,55,11.80
2011,07,10,02,56,11.80
2011,07,10,02,57,11.80
2011,07,10,02,58,11.80
2011,07,10,02,59,11.80
2011,07,10,03,01,11.80
2011,07,10,03,02,11.80
2011,07,10,03,03,11.80
2011,07,10,03,04,11.80
2011,07,10,03,05,11.80
2011,07,10,03,07,11.80
2011,07,10,03,08,11.80
2011,07,10,03,09,11.80
2011,07,10,03,10,11.80
2011,07,10,03,11,11.80
2011,07,10,03,12,11.70
2011,07,10,03,13,11.70
2011,07,10,03,14,11.80
2011,07,10,03,16,11.70
2011,07,10,03,17,11.80
2011,07,10,03,18,11.80
2011,07,10,03,20,11.80
2011,07,10,03,21,11.80
2011,07,10,03,22,11.80
2011,07,10,03,23,11.80
2011,07,10,03,24,11.80
2011,07,10,03,26,11.80
2011,07,10,03,27,11.80
2011,07,10,03,28,11.80
2011,07,10,03,29,11.80
2011,07,10,03,31,11.80
2011,07,10,03,32,11.80
2011,07,10,03,33,11.80
2011,07,10,03,34,11.80
2011,07,10,03,35,11.80
2011,07,10,03,36,11.80
2011,07,10,03,37,11.80
2011,07,10,03,38,11.80
2011,07,10,03,39,11.80
2011,07,10,03,40,11.80
2011,07,10,03,41,11.80
2011,07,10,03,42,11.80
2011,07,10,03,43,11.80
2011,07,10,03,44,11.80
2011,07,10,03,46,11.80
2011,07,10,03,47,11.80
2011,07,10,03,48,11.80
2011,07,10,03,50,11.80
2011,07,10,03,51,11.80
2011,07,10,03,52,11.80
2011,07,10,03,53,11.80
2011,07,10,03,54,11.80
2011,07,10,03,55,11.80
2011,07,10,03,56,11.90
2011,07,10,03,57,11.90
2011,07,10,03,59,11.90
2011,07,10,04,00,11.90
2011,07,10,04,01,11.90
2011,07,10,04,02,12.00
2011,07,10,04,03,12.00
2011,07,10,04,05,12.10
2011,07,10,04,06,12.10
2011,07,10,04,07,12.10
2011,07,10,04,08,12.10
2011,07,10,04,09,12.10
2011,07,10,04,10,12.10
2011,07,10,04,11,12.10
2011,07,10,04,12,12.10
2011,07,10,04,13,12.10
2011,07,10,04,15,12.20
2011,07,10,04,16,12.20
2011,07,10,04,17,12.20
2011,07,10,04,18,12.20
2011,07,10,04,20,12.20
2011,07,10,04,21,12.20
2011,07,10,04,22,12.20
2011,07,10,04,23,12.30
2011,07,10,04,25,12.30
2011,07,10,04,26,12.30
2011,07,10,04,27,12.30
2011,07,10,04,28,12.30
2011,07,10,04,30,12.30
2011,07,10,04,31,12.30
2011,07,10,04,32,12.30
2011,07,10,04,33,12.30
2011,07,10,04,35,12.30
2011,07,10,04,36,12.30
2011,07,10,04,37,12.30
2011,07,10,04,38,12.30
2011,07,10,04,39,12.30
2011,07,10,04,40,12.30
2011,07,10,04,41,12.30
2011,07,10,04,42,12.30
2011,07,10,04,43,12.30
2011,07,10,04,44,12.30
2011,07,10,04,45,12.30
2011,07,10,04,46,12.30
2011,07,10,04,47,12.30
2011,07,10,04,48,12.30
2011,07,10,04,49,12.30
2011,07,10,04,50,12.30
2011,07,10,04,51,12.30
2011,07,10,04,52,12.30
2011,07,10,04,53,12.30
2011,07,10,04,54,12.30
2011,07,10,04,55,12.30
2011,07,10,04,56,12.30
2011,07,10,04,57,12.30
2011,07,10,04,58,12.30
2011,07,10,04,59,12.30
2011,07,10,05,00,12.30
2011,07,10,05,01,12.30
2011,07,10,05,02,12.30
2011,07,10,05,03,12.30
2011,07,10,05,04,12.30
2011,07,10,05,05,12.30
2011,07,10,05,06,12.20
2011,07,10,05,07,12.30
2011,07,10,05,09,12.30
2011,07,10,05,10,12.30
2011,07,10,05,11,12.30
2011,07,10,05,12,12.30
2011,07,10,05,14,12.30
2011,07,10,05,15,12.30
2011,07,10,05,16,12.30
2011,07,10,05,17,12.30
2011,07,10,05,19,12.30
2011,07,10,05,20,12.30
2011,07,10,05,21,12.30
2011,07,10,05,22,12.30
2011,07,10,05,24,12.30
2011,07,10,05,25,12.30
2011,07,10,05,26,12.30
2011,07,10,05,27,12.30
2011,07,10,05,28,12.30
2011,07,10,05,29,12.30
2011,07,10,05,30,12.30
2011,07,10,05,31,12.30
2011,07,10,05,32,12.30
2011,07,10,05,34,12.30
2011,07,10,05,35,12.30
2011,07,10,05,36,12.30
2011,07,10,05,37,12.30
2011,07,10,05,38,12.30
2011,07,10,05,39,12.30
2011,07,10,05,40,12.30
2011,07,10,05,41,12.30
2011,07,10,05,42,12.30
2011,07,10,05,43,12.30
2011,07,10,05,44,12.30
2011,07,10,05,45,12.30
2011,07,10,05,46,12.30
2011,07,10,05,47,12.30
2011,07,10,05,49,12.30
2011,07,10,05,50,12.30
2011,07,10,05,51,12.30
2011,07,10,05,52,12.30
2011,07,10,05,54,12.30
2011,07,10,05,55,12.30
2011,07,10,05,56,12.30
2011,07,10,05,57,12.30
2011,07,10,05,59,12.30
2011,07,10,06,00,12.30
2011,07,10,06,01,12.30
2011,07,10,06,02,12.30
2011,07,10,06,04,12.40
2011,07,10,06,05,12.40
2011,07,10,06,06,12.40
2011,07,10,06,07,12.40
2011,07,10,06,08,12.40
2011,07,10,06,09,12.40
2011,07,10,06,11,12.40
2011,07,10,06,13,12.40
2011,07,10,06,14,12.40
2011,07,10,06,15,12.40
2011,07,10,06,16,12.40
2011,07,10,06,18,12.40
2011,07,10,06,19,12.40
2011,07,10,06,20,12.40
2011,07,10,06,21,12.40
2011,07,10,06,23,12.40
2011,07,10,06,24,12.30
2011,07,10,06,25,12.30
2011,07,10,06,27,12.30
2011,07,10,06,28,12.30
2011,07,10,06,29,12.30
2011,07,10,06,30,12.30
2011,07,10,06,31,12.30
2011,07,10,06,32,12.20
2011,07,10,06,33,12.20
2011,07,10,06,34,12.20
2011,07,10,06,35,12.20
2011,07,10,06,37,12.20
2011,07,10,06,38,12.20
2011,07,10,06,39,12.20
2011,07,10,06,40,12.20
2011,07,10,06,42,12.20
2011,07,10,06,43,12.30
2011,07,10,06,44,12.30
2011,07,10,06,46,12.30
2011,07,10,06,47,12.30
2011,07,10,06,48,12.30
2011,07,10,06,49,12.30
2011,07,10,06,50,12.30
2011,07,10,06,51,12.30
2011,07,10,06,52,12.30
2011,07,10,06,53,12.30
2011,07,10,06,55,12.40
2011,07,10,06,56,12.40
2011,07,10,06,57,12.40
2011,07,10,06,58,12.40
2011,07,10,06,59,12.40
2011,07,10,07,00,12.40
2011,07,10,07,01,12.40
2011,07,10,07,02,12.50
2011,07,10,07,03,12.50
2011,07,10,07,04,12.50
2011,07,10,07,05,12.50
2011,07,10,07,06,12.50
2011,07,10,07,07,12.50
2011,07,10,07,08,12.50
2011,07,10,07,10,12.50
2011,07,10,07,11,12.50
2011,07,10,07,12,12.50
2011,07,10,07,13,12.50
2011,07,10,07,14,12.50
2011,07,10,07,15,12.50
2011,07,10,07,16,12.50
2011,07,10,07,17,12.60
2011,07,10,07,18,12.60
2011,07,10,07,20,12.60
2011,07,10,07,21,12.60
2011,07,10,07,22,12.60
2011,07,10,07,23,12.60
2011,07,10,07,25,12.70
2011,07,10,07,26,12.70
2011,07,10,07,27,12.70
2011,07,10,07,28,12.70
2011,07,10,07,30,12.70
2011,07,10,07,31,12.80
2011,07,10,07,32,12.80
2011,07,10,07,33,12.80
2011,07,10,07,34,12.80
2011,07,10,07,35,12.80
2011,07,10,07,36,12.90
2011,07,10,07,37,12.90
2011,07,10,07,38,13.00
2011,07,10,07,39,13.00
2011,07,10,07,40,13.00
2011,07,10,07,41,13.10
2011,07,10,07,42,13.10
2011,07,10,07,43,13.10
2011,07,10,07,44,13.10
2011,07,10,07,45,13.10
2011,07,10,07,46,13.10
2011,07,10,07,47,13.20
2011,07,10,07,48,13.20
2011,07,10,07,49,13.20
2011,07,10,07,50,13.20
2011,07,10,07,51,13.20
2011,07,10,07,52,13.30
2011,07,10,07,54,13.30
2011,07,10,07,55,13.40
2011,07,10,07,56,13.40
2011,07,10,07,58,13.50
2011,07,10,07,59,13.50
2011,07,10,08,00,13.60
2011,07,10,08,01,13.60
2011,07,10,08,02,13.60
2011,07,10,08,03,13.60
2011,07,10,08,04,13.60
2011,07,10,08,05,13.60
2011,07,10,08,06,13.60
2011,07,10,08,07,13.60
2011,07,10,08,08,13.60
2011,07,10,08,09,13.60
2011,07,10,08,10,13.60
2011,07,10,08,12,13.60
2011,07,10,08,13,13.70
2011,07,10,08,14,13.70
2011,07,10,08,16,13.70
2011,07,10,08,17,13.70
2011,07,10,08,18,13.70
2011,07,10,08,19,13.80
2011,07,10,08,20,13.80
2011,07,10,08,21,13.80
2011,07,10,08,22,13.80
2011,07,10,08,23,13.80
2011,07,10,08,24,13.80
2011,07,10,08,25,13.90
2011,07,10,08,26,13.90
2011,07,10,08,27,13.90
2011,07,10,08,29,13.90
2011,07,10,08,30,14.00
2011,07,10,08,31,14.10
2011,07,10,08,32,14.10
2011,07,10,08,33,14.10
2011,07,10,08,34,14.10
2011,07,10,08,35,14.20
2011,07,10,08,36,14.20
2011,07,10,08,37,14.30
2011,07,10,08,38,14.30
2011,07,10,08,39,14.30
2011,07,10,08,40,14.30
2011,07,10,08,41,14.40
2011,07,10,08,42,14.40
2011,07,10,08,43,14.40
2011,07,10,08,44,14.40
2011,07,10,08,45,14.40
2011,07,10,08,47,14.40
2011,07,10,08,48,14.50
2011,07,10,08,49,14.60
2011,07,10,08,50,14.60
2011,07,10,08,52,14.70
2011,07,10,08,53,14.70
2011,07,10,08,54,14.80
2011,07,10,08,55,14.80
2011,07,10,08,57,14.90
2011,07,10,08,58,15.00
2011,07,10,08,59,15.00
2011,07,10,09,00,15.10
2011,07,10,09,02,15.10
2011,07,10,09,03,15.10
2011,07,10,09,04,15.20
2011,07,10,09,05,15.30
2011,07,10,09,07,15.30
2011,07,10,09,08,15.30
2011,07,10,09,09,15.30
2011,07,10,09,10,15.30
2011,07,10,09,11,15.30
2011,07,10,09,12,15.30
2011,07,10,09,13,15.40
2011,07,10,09,14,15.40
2011,07,10,09,15,15.50
2011,07,10,09,17,15.50
2011,07,10,09,18,15.60
2011,07,10,09,19,15.60
2011,07,10,09,20,15.60
2011,07,10,09,21,15.70
2011,07,10,09,22,15.70
2011,07,10,09,23,15.80
2011,07,10,09,24,15.80
2011,07,10,09,25,15.80
2011,07,10,09,26,15.80
2011,07,10,09,27,15.80
2011,07,10,09,28,15.80
2011,07,10,09,29,15.80
2011,07,10,09,30,15.80
2011,07,10,09,31,15.80
2011,07,10,09,32,15.90
2011,07,10,09,33,15.90
2011,07,10,09,35,16.00
2011,07,10,09,36,16.00
2011,07,10,09,37,16.00
2011,07,10,09,38,16.00
2011,07,10,09,40,16.00
2011,07,10,09,41,16.00
2011,07,10,09,42,16.00
2011,07,10,09,43,16.00
2011,07,10,09,45,16.10
2011,07,10,09,46,16.10
2011,07,10,09,47,16.10
2011,07,10,09,48,16.20
2011,07,10,09,50,16.20
2011,07,10,09,51,16.20
2011,07,10,09,52,16.20
2011,07,10,09,53,16.20
2011,07,10,09,55,16.30
2011,07,10,09,56,16.30
2011,07,10,09,57,16.30
2011,07,10,09,58,16.30
2011,07,10,10,00,16.40
2011,07,10,10,01,16.40
2011,07,10,10,02,16.40
2011,07,10,10,03,16.50
2011,07,10,10,05,16.60
2011,07,10,10,06,16.60
2011,07,10,10,07,16.60
2011,07,10,10,08,16.60
2011,07,10,10,10,16.70
2011,07,10,10,11,16.70
2011,07,10,10,12,16.70
2011,07,10,10,14,16.60
2011,07,10,10,15,16.40
2011,07,10,10,16,16.30
2011,07,10,10,17,16.30
2011,07,10,10,19,16.30
2011,07,10,10,20,16.20
2011,07,10,10,21,16.20
2011,07,10,10,22,16.20
2011,07,10,10,24,16.20
2011,07,10,10,25,16.20
2011,07,10,10,26,16.20
2011,07,10,10,27,16.20
2011,07,10,10,28,16.20
2011,07,10,10,30,16.30
2011,07,10,10,31,16.30
2011,07,10,10,32,16.40
2011,07,10,10,33,16.40
2011,07,10,10,34,16.40
2011,07,10,10,35,16.40
2011,07,10,10,36,16.40
2011,07,10,10,37,16.50
2011,07,10,10,38,16.60
2011,07,10,10,39,16.60
2011,07,10,10,40,16.70
2011,07,10,10,41,16.80
2011,07,10,10,42,16.90
2011,07,10,10,43,17.00
2011,07,10,10,45,17.20
2011,07,10,10,46,17.30
2011,07,10,10,47,17.40
2011,07,10,10,48,17.40
2011,07,10,10,50,17.50
2011,07,10,10,51,17.50
2011,07,10,10,52,17.50
2011,07,10,10,53,17.50
2011,07,10,10,54,17.50
2011,07,10,10,55,17.50
2011,07,10,10,56,17.60
2011,07,10,10,57,17.60
2011,07,10,10,59,17.70
2011,07,10,11,00,17.60
2011,07,10,11,01,17.60
2011,07,10,11,02,17.40
2011,07,10,11,03,17.40
2011,07,10,11,04,17.30
2011,07,10,11,05,17.30
2011,07,10,11,06,17.30
2011,07,10,11,07,17.30
2011,07,10,11,09,17.30
2011,07,10,11,10,17.30
2011,07,10,11,11,17.30
2011,07,10,11,12,17.20
2011,07,10,11,14,17.20
2011,07,10,11,15,17.30
2011,07,10,11,16,17.30
2011,07,10,11,17,17.30
2011,07,10,11,19,17.40
2011,07,10,11,20,17.40
2011,07,10,11,21,17.40
2011,07,10,11,22,17.40
2011,07,10,11,23,17.40
2011,07,10,11,25,17.40
2011,07,10,11,26,17.60
2011,07,10,11,27,17.70
2011,07,10,11,28,17.70
2011,07,10,11,29,17.80
2011,07,10,11,31,17.80
2011,07,10,11,32,17.80
2011,07,10,11,33,17.90
2011,07,10,11,34,17.90
2011,07,10,11,36,18.00
2011,07,10,11,37,17.90
2011,07,10,11,38,17.80
2011,07,10,11,39,17.80
2011,07,10,11,41,17.90
2011,07,10,11,42,17.90
2011,07,10,11,43,18.00
2011,07,10,11,44,18.10
2011,07,10,11,46,18.20
2011,07,10,11,47,18.30
2011,07,10,11,48,18.30
2011,07,10,11,49,18.30
2011,07,10,11,50,18.30
2011,07,10,11,51,18.40
2011,07,10,11,52,18.40
2011,07,10,11,54,18.40
2011,07,10,11,55,18.40
2011,07,10,11,56,18.30
2011,07,10,11,57,18.30
2011,07,10,11,58,18.20
2011,07,10,11,59,18.20
2011,07,10,12,00,18.30
2011,07,10,12,01,18.30
2011,07,10,12,02,18.40
2011,07,10,12,04,18.40
2011,07,10,12,05,18.40
2011,07,10,12,06,18.40
2011,07,10,12,07,18.40
2011,07,10,12,08,18.40
2011,07,10,12,09,18.40
2011,07,10,12,10,18.40
2011,07,10,12,11,18.40
2011,07,10,12,12,18.50
2011,07,10,12,13,18.50
2011,07,10,12,14,18.60
2011,07,10,12,15,18.60
2011,07,10,12,16,18.60
2011,07,10,12,17,18.60
2011,07,10,12,19,18.60
2011,07,10,12,20,18.60
2011,07,10,12,21,18.60
2011,07,10,12,22,18.70
2011,07,10,12,23,18.70
2011,07,10,12,25,18.70
2011,07,10,12,26,18.70
2011,07,10,12,27,18.80
2011,07,10,12,29,18.70
2011,07,10,12,30,18.70
2011,07,10,12,31,18.60
2011,07,10,12,32,18.50
2011,07,10,12,34,18.40
2011,07,10,12,35,18.30
2011,07,10,12,36,18.20
2011,07,10,12,37,18.20
2011,07,10,12,38,18.20
2011,07,10,12,39,18.10
2011,07,10,12,40,18.10
2011,07,10,12,41,18.10
2011,07,10,12,42,18.10
2011,07,10,12,43,18.10
2011,07,10,12,44,18.10
2011,07,10,12,45,18.10
2011,07,10,12,46,18.10
2011,07,10,12,48,18.10
2011,07,10,12,49,18.10
2011,07,10,12,50,18.00
2011,07,10,12,51,17.90
2011,07,10,12,53,17.90
2011,07,10,12,54,18.00
2011,07,10,12,55,18.10
2011,07,10,12,56,18.20
2011,07,10,12,58,18.20
2011,07,10,12,59,18.30
2011,07,10,13,00,18.40
2011,07,10,13,01,18.40
2011,07,10,13,02,18.40
2011,07,10,13,03,18.40
2011,07,10,13,04,18.40
2011,07,10,13,05,18.40
2011,07,10,13,06,18.40
2011,07,10,13,07,18.40
2011,07,10,13,08,18.50
2011,07,10,13,09,18.50
2011,07,10,13,10,18.60
2011,07,10,13,12,18.60
2011,07,10,13,13,18.60
2011,07,10,13,14,18.60
2011,07,10,13,15,18.60
2011,07,10,13,17,18.60
2011,07,10,13,18,18.60
2011,07,10,13,19,18.60
2011,07,10,13,20,18.60
2011,07,10,13,22,18.60
2011,07,10,13,23,18.50
2011,07,10,13,24,18.40
2011,07,10,13,25,18.30
2011,07,10,13,26,18.30
2011,07,10,13,27,18.20
2011,07,10,13,28,18.20
2011,07,10,13,29,18.20
2011,07,10,13,30,18.30
2011,07,10,13,31,18.20
2011,07,10,13,32,18.20
2011,07,10,13,33,18.20
2011,07,10,13,34,18.20
2011,07,10,13,35,18.20
2011,07,10,13,37,18.20
2011,07,10,13,38,18.20
2011,07,10,13,39,18.10
2011,07,10,13,40,18.10
2011,07,10,13,41,18.10
2011,07,10,13,42,18.00
2011,07,10,13,43,18.00
2011,07,10,13,44,17.90
2011,07,10,13,45,17.90
2011,07,10,13,46,17.90
2011,07,10,13,47,17.90
2011,07,10,13,48,17.90
2011,07,10,13,49,17.90
2011,07,10,13,51,18.00
2011,07,10,13,52,18.00
2011,07,10,13,53,18.00
2011,07,10,13,54,18.00
2011,07,10,13,55,18.00
2011,07,10,13,56,18.00
2011,07,10,13,57,18.10
2011,07,10,13,58,18.10
2011,07,10,13,59,18.10
2011,07,10,14,01,18.20
2011,07,10,14,02,18.30
2011,07,10,14,03,18.30
2011,07,10,14,05,18.40
2011,07,10,14,06,18.40
2011,07,10,14,07,18.40
2011,07,10,14,08,18.50
2011,07,10,14,10,18.50
2011,07,10,14,11,18.60
2011,07,10,14,12,18.60
2011,07,10,14,13,18.60
2011,07,10,14,14,18.60
2011,07,10,14,15,18.50
2011,07,10,14,16,18.40
2011,07,10,14,17,18.40
2011,07,10,14,18,18.40
2011,07,10,14,20,18.40
2011,07,10,14,21,18.60
2011,07,10,14,22,18.70
2011,07,10,14,23,18.70
2011,07,10,14,24,18.80
2011,07,10,14,26,18.80
2011,07,10,14,27,18.90
2011,07,10,14,28,19.00
2011,07,10,14,29,19.10
2011,07,10,14,30,19.10
2011,07,10,14,31,19.10
2011,07,10,14,32,18.90
2011,07,10,14,33,18.90
2011,07,10,14,35,18.80
2011,07,10,14,36,18.70
2011,07,10,14,37,18.70
2011,07,10,14,38,18.70
2011,07,10,14,39,18.60
2011,07,10,14,40,18.60
2011,07,10,14,41,18.50
2011,07,10,14,42,18.40
2011,07,10,14,44,18.40
2011,07,10,14,45,18.40
2011,07,10,14,46,18.40
2011,07,10,14,48,18.60
2011,07,10,14,49,18.60
2011,07,10,14,50,18.60
2011,07,10,14,51,18.70
2011,07,10,14,53,18.80
2011,07,10,14,54,18.90
2011,07,10,14,55,19.10
2011,07,10,14,56,19.10
2011,07,10,14,57,19.20
2011,07,10,14,59,19.20
2011,07,10,15,00,19.20
2011,07,10,15,01,19.30
2011,07,10,15,02,19.30
2011,07,10,15,03,19.40
2011,07,10,15,04,19.50
2011,07,10,15,05,19.50
2011,07,10,15,06,19.60
2011,07,10,15,07,19.60
2011,07,10,15,08,19.60
2011,07,10,15,09,19.60
2011,07,10,15,10,19.60
2011,07,10,15,11,19.70
2011,07,10,15,12,19.70
2011,07,10,15,13,19.70
2011,07,10,15,15,19.80
2011,07,10,15,16,19.70
2011,07,10,15,17,19.60
2011,07,10,15,18,19.50
2011,07,10,15,20,19.40
2011,07,10,15,21,19.30
2011,07,10,15,22,19.40
2011,07,10,15,23,19.40
2011,07,10,15,24,19.40
2011,07,10,15,25,19.50
2011,07,10,15,26,19.50
2011,07,10,15,27,19.60
2011,07,10,15,28,19.50
2011,07,10,15,29,19.40
2011,07,10,15,31,19.40
2011,07,10,15,32,19.30
2011,07,10,15,33,19.30
2011,07,10,15,35,19.30
2011,07,10,15,36,19.20
2011,07,10,15,37,19.20
2011,07,10,15,38,19.20
2011,07,10,15,39,19.20
2011,07,10,15,40,19.20
2011,07,10,15,41,19.20
2011,07,10,15,42,19.20
2011,07,10,15,43,19.20
2011,07,10,15,44,19.20
2011,07,10,15,45,19.20
2011,07,10,15,46,19.20
2011,07,10,15,47,19.20
2011,07,10,15,48,19.10
2011,07,10,15,49,19.10
2011,07,10,15,50,19.10
2011,07,10,15,51,19.00
2011,07,10,15,52,19.10
2011,07,10,15,53,19.10
2011,07,10,15,54,19.00
2011,07,10,15,55,19.10
2011,07,10,15,56,19.10
2011,07,10,15,58,19.10
2011,07,10,15,59,19.10
2011,07,10,16,00,19.10
2011,07,10,16,01,19.10
2011,07,10,16,02,19.10
2011,07,10,16,04,19.00
2011,07,10,16,05,18.90
2011,07,10,16,06,18.90
2011,07,10,16,07,18.90
2011,07,10,16,08,18.80
2011,07,10,16,10,18.80
2011,07,10,16,11,18.70
2011,07,10,16,12,18.70
2011,07,10,16,13,18.70
2011,07,10,16,14,18.70
2011,07,10,16,16,18.70
2011,07,10,16,17,18.80
2011,07,10,16,18,18.80
2011,07,10,16,19,18.80
2011,07,10,16,21,18.70
2011,07,10,16,22,18.60
2011,07,10,16,23,18.60
2011,07,10,16,24,18.60
2011,07,10,16,25,18.70
2011,07,10,16,26,18.70
2011,07,10,16,27,18.80
2011,07,10,16,29,18.80
2011,07,10,16,30,18.90
2011,07,10,16,31,18.90
2011,07,10,16,32,19.00
2011,07,10,16,33,19.10
2011,07,10,16,34,19.10
2011,07,10,16,35,19.10
2011,07,10,16,36,19.20
2011,07,10,16,37,19.20
2011,07,10,16,38,19.20
2011,07,10,16,39,19.20
2011,07,10,16,40,19.20
2011,07,10,16,41,19.20
2011,07,10,16,43,19.20
2011,07,10,16,44,19.30
2011,07,10,16,45,19.30
2011,07,10,16,46,19.40
2011,07,10,16,47,19.40
2011,07,10,16,49,19.40
2011,07,10,16,50,19.50
2011,07,10,16,51,19.60
2011,07,10,16,52,19.60
2011,07,10,16,53,19.60
2011,07,10,16,55,19.60
2011,07,10,16,56,19.50
2011,07,10,16,57,19.40
2011,07,10,16,58,19.40
2011,07,10,16,59,19.30
2011,07,10,17,00,19.30
2011,07,10,17,01,19.30
2011,07,10,17,02,19.20
2011,07,10,17,03,19.20
2011,07,10,17,04,19.20
2011,07,10,17,05,19.20
2011,07,10,17,06,19.20
2011,07,10,17,07,19.20
2011,07,10,17,08,19.20
2011,07,10,17,09,19.20
2011,07,10,17,11,19.30
2011,07,10,17,12,19.30
2011,07,10,17,13,19.30
2011,07,10,17,14,19.20
2011,07,10,17,15,19.20
2011,07,10,17,16,19.20
2011,07,10,17,17,19.20
2011,07,10,17,18,19.20
2011,07,10,17,19,19.20
2011,07,10,17,20,19.20
2011,07,10,17,21,19.20
2011,07,10,17,22,19.20
2011,07,10,17,23,19.20
2011,07,10,17,24,19.20
2011,07,10,17,25,19.20
2011,07,10,17,26,19.10
2011,07,10,17,27,19.10
2011,07,10,17,28,19.10
2011,07,10,17,29,19.10
2011,07,10,17,30,19.20
2011,07,10,17,31,19.20
2011,07,10,17,33,19.30
2011,07,10,17,34,19.30
2011,07,10,17,35,19.30
2011,07,10,17,36,19.30
2011,07,10,17,37,19.30
2011,07,10,17,39,19.30
2011,07,10,17,40,19.30
2011,07,10,17,41,19.30
2011,07,10,17,42,19.30
2011,07,10,17,43,19.40
2011,07,10,17,45,19.40
2011,07,10,17,46,19.60
2011,07,10,17,47,19.70
2011,07,10,17,48,19.80
2011,07,10,17,49,19.80
2011,07,10,17,50,19.90
2011,07,10,17,51,19.90
2011,07,10,17,52,19.90
2011,07,10,17,53,19.90
2011,07,10,17,54,20.00
2011,07,10,17,55,20.10
2011,07,10,17,56,20.20
2011,07,10,17,57,20.30
2011,07,10,17,59,20.30
2011,07,10,18,00,20.40
2011,07,10,18,01,20.50
2011,07,10,18,02,20.60
2011,07,10,18,04,20.60
2011,07,10,18,05,20.70
2011,07,10,18,06,20.80
2011,07,10,18,08,20.80
2011,07,10,18,09,20.90
2011,07,10,18,10,20.90
2011,07,10,18,11,20.90
2011,07,10,18,13,21.00
2011,07,10,18,14,21.00
2011,07,10,18,15,21.10
2011,07,10,18,16,21.00
2011,07,10,18,17,21.00
2011,07,10,18,18,20.90
2011,07,10,18,19,20.80
2011,07,10,18,20,20.80
2011,07,10,18,21,20.80
2011,07,10,18,22,20.80
2011,07,10,18,23,20.80
2011,07,10,18,24,20.80
2011,07,10,18,25,20.80
2011,07,10,18,26,20.80
2011,07,10,18,28,20.80
2011,07,10,18,29,20.70
2011,07,10,18,30,20.70
2011,07,10,18,31,20.70
2011,07,10,18,32,20.70
2011,07,10,18,33,20.70
2011,07,10,18,34,20.60
2011,07,10,18,35,20.60
2011,07,10,18,36,20.50
2011,07,10,18,38,20.40
2011,07,10,18,39,20.30
2011,07,10,18,40,20.30
2011,07,10,18,41,20.30
2011,07,10,18,43,20.20
2011,07,10,18,44,20.20
2011,07,10,18,45,20.10
2011,07,10,18,46,20.00
2011,07,10,18,47,19.90
2011,07,10,18,49,19.80
2011,07,10,18,50,19.70
2011,07,10,18,51,19.60
2011,07,10,18,52,19.60
2011,07,10,18,53,19.50
2011,07,10,18,54,19.50
2011,07,10,18,55,19.40
2011,07,10,18,56,19.40
2011,07,10,18,57,19.40
2011,07,10,18,59,19.30
2011,07,10,19,00,19.30
2011,07,10,19,01,19.30
2011,07,10,19,02,19.30
2011,07,10,19,04,19.30
2011,07,10,19,05,19.30
2011,07,10,19,06,19.30
2011,07,10,19,07,19.30
2011,07,10,19,08,19.30
2011,07,10,19,09,19.40
2011,07,10,19,10,19.40
2011,07,10,19,11,19.40
2011,07,10,19,12,19.40
2011,07,10,19,13,19.50
2011,07,10,19,14,19.50
2011,07,10,19,15,19.60
2011,07,10,19,16,19.60
2011,07,10,19,17,19.60
2011,07,10,19,19,19.70
2011,07,10,19,20,19.70
2011,07,10,19,21,19.80
2011,07,10,19,22,19.90
2011,07,10,19,24,19.90
2011,07,10,19,25,20.10
2011,07,10,19,26,20.10
2011,07,10,19,27,20.10
2011,07,10,19,28,20.20
2011,07,10,19,30,20.20
2011,07,10,19,31,20.20
2011,07,10,19,32,20.30
2011,07,10,19,33,20.30
2011,07,10,19,35,20.30
2011,07,10,19,36,20.40
2011,07,10,19,37,20.50
2011,07,10,19,38,20.60
2011,07,10,19,39,20.60
2011,07,10,19,41,20.70
2011,07,10,19,42,20.70
2011,07,10,19,43,20.70
2011,07,10,19,44,20.70
2011,07,10,19,45,20.80
2011,07,10,19,46,20.80
2011,07,10,19,47,20.80
2011,07,10,19,48,20.80